SCP
0 0 0 0 0 0 0 0 0 0 0 0 0 0 0 0 0 0 0 0 0 0 0 0 0 0 0 0 0 0 0 0 0 0 0 0 0 0 0 0 0 0 0 0
0 0 0 0 0 0 0 0 0 0 0 0 0 0 0 0 0 0 0 0 0 0 0 0 0 0 0 0 0 0 0 0 0 0 0 0 0 0 0 0 0 0 0 0
0 0 0 0 0 0 0 0 0 0 0 -0 0 0 0 0 0 0 0 0 0 0 0 0 0 0 0 0 0 0 0 0 0 0 0 0 0 0 0 0 0 0 0 0
0 0 0 0 0 0 0 0 0 0 0 0 0 0 0 0 0 0 0 0 0 0 0 0 0 0 0 0 0 0 0 0 0 0 0 0 0 0 0 0 0 0 0 0
0 0 0 0 0 0 0 0 0 0 0 0 0 0 0 0 0 0 0 0 0 0 0 0 0 0 0 0 0 0 0 0 0 0 0 0 0 0 0 0 0 0 0 0
0 0 0 0 0 0 0 0 0 0 0 0 0 0 0 0 0 0 0 0 0 0 0 0 0 0 0 0 0 0 0 0 0 0 0 0 0 0 0 0 0 0 0 0
0 0 0 0 0 0 0 0 0 0 0 0 0 0 0 0 0 0 0 0 0 0 0 0 0 0 0 0 0 0 0 0 0 0 0 0 0 0 0 0 0 0 0 0
0 0 0 0 0 0 0 0 0 0 0 0 0 0 0 0 0 0 0 0 0 0 0 0 0 0 0 0 0 0 0 0 0 0 0 0 0 0 0 0 0 0 0 0
0 0 0 0 0 0 0 0 0 0 0 0 0 0 0 0 0 0 0 0 0 0 0 0 0 0 0 0 0 0 0 0 0 0 0 0 0 0 0 0 0 0 0 0
0 0 0 0 0 0 0 0 0 0 0 0 0 0 0 0 0 0 0 0 0 0 0 0 0 0 0 0 0 0 0 0 0 0 0 0 0 0 0 0 0 0 0 0
0 0 0 0 0 0 0 0 0 0 0 0 0 0 0 0 0 0 0 0 0 0 0 0 0 0 0 0 0 0 0 0 0 0 0 0 0 0 0 0 0 0 0 0
0 0 0 0 0 0 0 0 0 0 0 0 0 0 0 0 0 0 0 0 0 0 0 0 0 0 0 0 0 0 0 0 0 0 0 0 0 0 0 0 0 0 0 0
0 0 0 0 0 0 0 0 0 0 0 0 0 0 0 0 0 0 0 0 0 0 0 0 0 0 0 0 0 0 0 0 0 0 0 0 0 0 0 0 0 0 0 0
0 0 0 0 0 0 0 0 0 0 0 0 0 0 0 0 0 0 0 0 0 0 0 0 0 0 0 0 0 0 0 0 0 0 0 0 0 0 0 0 0 0 0 0
0 0 0 0 0 0 0 0 0 0 0 0 0 0 0 0 0 0 0 0 0 0 0 0 0 0 0 0 0 0 0 0 0 0 0 0 0 0 0 0 0 0 0 0
0 0 0 0 0 0 0 0 0 0 0 0 0 0 0 0 0 0 0 0 0 0 0 0 0 0 0 0 0 0 0 0 0 0 0 0 0 0 0 0 0 0 0 0
0 0 0 0 0 0 0 0 0 0 0 0 0 0 0 0 0 0 0 0 0 0 0 0 0 0 0 0 0 0 0 0 0 0 0 0 0 0 0 0 0 0 0 0
0 0 0 0 0 0 0 0 0 0 0 0 0 0 0 0 0 0 0 0 0 0 0 0 0 0 0 0 0 0 0 0 0 0 0 0 0 0 0 0 0 0 0 0
0 0 0 0 0 0 0 0 0 0 0 0 0 0 0 0 0 0 0 0 0 0 0 0 0 0 0 0 0 0 0 0 0 0 0 0 0 0 0 0 0 0 0 0
0 0 0 1 0 0 0 0 0 0 0 -0 0 0 0 0 0 0 0 0 0 0 0 0 0 0 0 0 0 0 0 0 0 0 0 0 0 0 0 0 0 0 0 0
0 0 0 0 0 0 0 0 0 0 0 0 0 0 0 0 0 0 0 0 0 0 0 0 0 0 0 0 0 0 0 0 0 0 0 0 0 0 0 0 0 0 0 0
0 0 0 0 0 0 0 0 0 0 0 0 0 0 0 0 0 0 0 0 0 0 0 0 0 0 0 0 0 0 0 0 0 0 0 0 0 0 0 0 0 0 0 0
0 0 0 0 1 0 0 0 0 0 0 0 0 0 0 0 0 0 0 0 0 0 0 0 0 0 0 0 0 0 0 0 0 0 0 0 0 0 0 0 0 0 0 0
0 0 0 0 0 0 0 0 0 0 0 0 0 0 0 0 0 0 0 0 0 0 0 0 0 0 0 0 0 0 0 0 0 0 0 0 0 0 0 0 0 0 0 0
0 0 0 0 0 0 0 0 0 0 0 0 0 0 0 0 0 0 0 0 0 0 0 0 0 0 0 0 0 0 0 0 0 0 0 0 0 0 0 0 0 0 0 0
0 0 0 0 0 0 0 0 0 0 0 0 0 0 0 0 0 0 0 0 0 0 0 0 0 0 0 0 0 0 0 0 0 0 0 0 0 0 0 0 0 0 0 0
Wind_Speed_500mb
35 21 32 38 37 31 35 25 35 26 22 10 30 35 37 44 49 49 48 47 51 57 54 43 37 31 31 40 40 44 44 44 39 42 49 52 55 52 60 64 63 57 48 49
21 34 37 35 36 38 37 34 31 22 7 8 30 41 41 49 51 53 51 54 56 55 46 34 26 35 41 45 45 47 48 46 41 38 40 38 35 38 49 46 48 51 48 47
44 5 42 28 33 37 39 40 31 31 22 26 31 47 46 50 64 61 56 57 48 42 35 27 21 26 32 35 34 34 37 38 38 34 31 34 33 34 32 31 32 37 38 34
36 47 22 39 37 33 37 32 29 27 22 21 10 16 26 15 21 26 40 40 40 30 17 11 15 19 24 25 25 24 23 22 20 25 26 29 30 28 22 18 19 24 23 25
24 34 39 36 40 35 26 19 18 21 26 31 36 22 19 22 21 19 21 29 31 10 9 7 13 17 18 18 16 14 12 13 16 22 25 23 25 25 26 24 21 19 21 24
41 3 26 45 16 35 15 10 8 11 16 24 34 29 30 32 36 35 8 2 6 5 5 6 11 11 11 10 9 7 6 6 1 8 17 24 27 27 27 23 23 24 26 30
32 28 13 12 37 26 35 24 9 11 14 21 9 24 43 2 3 8 12 8 12 13 10 7 5 5 6 3 3 5 8 11 11 10 11 13 14 17 19 19 18 20 22 24
22 16 34 24 33 20 43 34 14 15 18 17 26 22 25 19 30 15 8 14 19 15 13 12 11 9 9 6 5 6 9 13 16 18 18 17 16 14 13 12 11 8 6 3
27 23 10 33 25 28 28 35 33 26 2 9 20 19 23 14 18 18 19 17 20 18 16 14 14 14 13 13 12 12 12 15 16 18 19 18 17 16 16 13 10 9 7 6
12 8 17 23 22 30 24 17 19 9 14 24 28 36 26 29 31 22 23 31 26 23 20 18 15 15 16 16 15 16 16 16 19 18 19 18 16 14 13 11 8 5 3 3
17 12 11 15 30 34 24 20 17 14 19 14 26 27 24 19 26 29 33 33 31 28 27 24 22 22 21 19 18 17 17 15 15 14 13 11 9 5 2 1 3 4 5 8
40 15 18 31 10 34 36 41 36 14 18 11 11 24 8 5 11 21 28 33 33 35 33 30 29 27 26 24 21 17 15 13 9 7 5 2 1 1 3 4 8 9 11 12
30 13 9 13 15 24 28 40 43 38 9 29 23 33 8 14 17 20 26 34 38 39 40 37 34 32 27 30 26 24 20 18 15 9 5 3 5 7 7 6 6 8 11 13
38 26 30 34 36 21 29 43 45 41 25 39 37 53 46 27 26 26 31 38 41 46 45 40 36 36 36 33 30 26 21 15 10 7 6 6 6 7 8 7 6 9 11 11
19 17 41 46 43 39 33 44 45 47 49 36 46 36 55 48 37 39 48 41 47 50 50 52 48 45 39 39 36 28 24 19 16 14 13 12 12 10 9 9 3 3 5 8
31 17 28 35 42 41 47 39 33 51 53 49 54 54 54 53 55 47 45 50 55 58 62 57 52 51 48 43 38 31 25 23 21 16 14 14 14 10 8 5 2 3 8 13
35 19 16 33 31 33 38 52 52 41 45 48 47 58 53 51 45 43 41 59 68 71 71 68 62 58 56 50 41 34 26 21 22 17 16 16 14 11 8 2 2 5 11 16
24 38 19 23 22 36 32 37 47 57 55 52 52 53 55 51 53 51 56 65 71 70 72 75 71 65 62 55 44 37 30 27 24 22 22 18 16 11 7 2 3 8 12 15
7 4 14 17 30 42 12 25 44 49 57 55 57 59 65 71 56 62 72 65 72 76 77 75 81 78 67 54 45 39 33 28 26 26 24 18 16 13 8 4 2 7 11 15
37 21 13 12 13 13 26 49 33 27 30 62 48 52 54 68 24 43 48 67 57 64 75 85 87 74 63 56 48 39 39 36 32 28 23 22 18 14 7 3 4 7 11 15
21 25 34 31 21 18 21 12 33 23 25 19 50 70 72 34 58 62 22 44 65 83 84 75 71 68 63 54 45 38 33 36 34 30 27 21 17 11 7 5 8 10 13 15
24 17 20 20 23 34 14 12 29 21 24 21 23 38 43 56 54 50 42 51 71 77 71 69 68 64 58 52 46 41 38 36 33 30 24 19 13 10 9 8 8 12 16 19
27 28 21 19 12 4 11 18 40 63 45 41 34 41 39 41 52 45 44 48 58 63 63 61 63 59 54 49 44 41 41 33 32 28 22 18 15 12 9 8 10 13 15 20
17 30 22 31 29 34 45 48 54 55 71 59 50 44 36 46 46 45 45 50 55 62 64 62 59 54 48 43 44 41 36 37 33 28 23 18 13 10 9 10 12 16 18 21
21 14 20 23 26 36 52 63 63 47 65 76 55 43 35 37 43 52 56 57 56 58 61 59 56 51 48 47 40 39 37 35 31 25 20 16 13 12 12 12 13 16 19 21
18 16 11 15 22 17 14 15 22 19 57 62 52 46 42 42 43 50 54 56 58 57 56 56 53 52 47 41 41 38 35 30 26 23 20 17 14 12 11 12 14 15 17 20
Wind_Direction_500mb
203 210 217 218 221 229 255 255 246 246 241 257 257 262 264 262 263 261 261 262 262 266 275 282 285 286 285 286 284 283 279 273 264 257 256 250 249 248 254 261 265 267 259 253
198 223 224 226 230 232 237 245 244 259 249 270 270 268 268 264 257 256 257 260 262 267 274 279 285 276 288 294 293 288 279 277 266 253 247 243 242 245 264 269 262 264 263 252
216 191 219 220 218 223 229 234 240 248 259 233 271 275 255 251 248 249 251 255 261 268 278 279 288 294 299 304 302 297 284 273 268 257 243 238 235 239 242 239 258 274 271 260
229 231 224 217 222 221 236 227 243 259 262 255 163 288 297 271 253 238 238 250 259 263 262 278 288 297 305 309 314 312 301 279 268 252 237 232 233 240 248 247 243 246 258 270
205 211 208 222 215 216 247 248 219 239 251 269 253 268 278 241 249 240 231 252 249 227 240 256 282 290 302 312 322 328 323 291 251 234 206 218 233 233 228 232 230 240 244 250
221 174 241 224 210 228 220 170 193 245 259 254 246 239 262 248 235 237 230 210 162 181 194 249 268 275 295 302 318 333 357 3 114 194 199 204 214 223 232 245 249 245 252 250
214 223 230 213 208 209 201 189 197 217 211 246 206 217 249 104 26 180 234 263 183 205 193 193 222 251 245 261 336 24 51 61 88 118 146 174 188 209 224 231 239 237 238 252
195 202 198 193 203 190 196 191 187 218 224 261 198 238 238 269 243 226 209 190 193 199 208 190 206 211 209 193 159 115 102 98 101 107 118 133 141 152 159 152 153 162 171 185
202 232 183 179 197 193 192 222 228 280 316 277 237 229 259 213 187 199 219 218 216 198 193 190 181 187 188 178 166 148 129 120 117 116 116 118 120 124 122 120 113 101 80 56
186 234 181 173 202 232 228 206 207 202 224 236 243 252 251 185 216 210 224 220 204 199 192 183 175 184 186 176 164 154 144 136 126 124 125 121 119 116 113 111 110 99 61 342
211 230 161 162 206 197 199 222 223 222 236 246 259 256 249 257 218 199 214 211 202 202 195 187 186 191 188 177 167 160 155 148 141 136 127 121 115 111 89 350 345 325 323 313
208 220 220 208 222 228 212 214 209 212 196 220 268 260 152 69 268 187 198 199 199 198 196 191 191 189 186 184 180 171 166 164 154 138 146 165 169 294 302 314 313 318 318 323
189 225 202 239 242 219 227 233 220 231 265 238 237 257 299 255 211 221 197 196 199 197 194 192 192 191 192 192 192 189 189 186 186 189 197 243 282 294 298 308 316 312 319 324
191 224 220 229 232 193 212 228 230 232 238 245 238 251 263 222 220 210 208 206 202 201 198 196 195 196 202 201 201 202 199 201 200 211 239 273 292 293 290 297 329 329 325 336
196 230 229 242 254 261 236 225 226 227 232 229 246 240 255 256 252 214 220 210 205 204 200 200 200 199 204 206 206 208 217 225 232 236 241 251 262 253 252 265 293 319 359 1
196 233 226 247 247 242 250 246 242 230 235 242 247 252 254 263 263 251 217 212 212 208 207 204 202 202 204 208 212 219 223 223 221 233 255 257 248 240 243 245 286 343 15 18
210 224 223 247 241 246 247 236 237 243 236 238 241 248 256 254 257 253 232 215 214 212 206 204 204 204 206 210 213 215 222 236 243 239 243 245 241 240 248 271 353 27 25 21
226 218 220 244 248 242 241 241 231 238 238 239 243 252 253 254 264 266 252 228 220 212 203 205 206 206 208 209 210 213 217 227 236 237 241 233 230 230 223 241 358 20 22 13
232 224 230 232 242 246 286 236 224 224 239 240 241 246 254 260 264 269 253 232 228 213 210 202 208 209 208 206 208 214 221 227 233 234 231 226 226 223 216 217 321 15 9 2
211 233 224 219 253 227 244 245 239 233 249 250 242 247 247 247 240 252 253 237 219 202 196 204 210 207 206 207 214 217 223 225 235 231 225 223 217 218 226 250 330 355 349 347
201 215 222 232 247 256 268 330 174 183 239 243 231 232 237 230 227 247 259 213 199 196 199 207 207 205 207 208 210 213 214 217 223 222 217 215 213 218 240 290 325 330 333 334
205 205 214 231 238 248 251 143 204 245 297 295 272 244 247 241 235 229 222 195 192 195 198 202 201 203 205 206 208 212 218 221 219 215 210 210 214 230 249 275 311 328 335 334
240 236 237 228 243 167 186 232 279 297 294 288 278 269 265 233 219 210 198 197 197 199 199 198 200 199 200 203 206 208 212 213 213 212 207 207 215 230 256 292 308 306 310 314
234 237 239 243 247 252 260 263 258 263 266 270 267 264 256 234 218 209 202 198 196 198 198 200 199 199 200 199 201 204 210 210 208 206 206 209 218 234 256 274 286 297 309 316
248 211 218 241 260 269 265 254 254 263 276 260 263 256 245 236 223 213 201 200 198 196 196 201 201 199 197 196 201 203 200 202 202 203 208 212 219 231 246 267 287 303 312 319
205 219 213 237 238 244 276 274 276 264 268 263 263 262 245 232 222 212 203 199 200 196 193 193 194 195 194 198 198 195 196 198 201 206 212 216 226 242 261 278 293 307 313 316
Wind_Speed_850mb
35 21 32 38 37 31 35 25 35 26 22 10 30 35 37 44 49 49 48 47 51 57 54 43 37 31 31 40 40 44 44 44 39 42 49 52 55 52 60 64 63 57 48 49
21 34 37 35 36 38 37 34 31 22 7 8 30 41 41 49 51 53 51 54 56 55 46 34 26 35 41 45 45 47 48 46 41 38 40 38 35 38 49 46 48 51 48 47
44 5 42 28 33 37 39 40 31 31 22 26 31 47 46 50 64 61 56 57 48 42 35 27 21 26 32 35 34 34 37 38 38 34 31 34 33 34 32 31 32 37 38 34
36 47 22 39 37 33 37 32 29 27 22 21 10 16 26 15 21 26 40 40 40 30 17 11 15 19 24 25 25 24 23 22 20 25 26 29 30 28 22 18 19 24 23 25
24 34 39 36 40 35 26 19 18 21 26 31 36 22 19 22 21 19 21 29 31 10 9 7 13 17 18 18 16 14 12 13 16 22 25 23 25 25 26 24 21 19 21 24
41 3 26 45 16 35 15 10 8 11 16 24 34 29 30 32 36 35 8 2 6 5 5 6 11 11 11 10 9 7 6 6 1 8 17 24 27 27 27 23 23 24 26 30
32 28 13 12 37 26 35 24 9 11 14 21 9 24 43 2 3 8 12 8 12 13 10 7 5 5 6 3 3 5 8 11 11 10 11 13 14 17 19 19 18 20 22 24
22 16 34 24 33 20 43 34 14 15 18 17 26 22 25 19 30 15 8 14 19 15 13 12 11 9 9 6 5 6 9 13 16 18 18 17 16 14 13 12 11 8 6 3
27 23 10 33 25 28 28 35 33 26 2 9 20 19 23 14 18 18 19 17 20 18 16 14 14 14 13 13 12 12 12 15 16 18 19 18 17 16 16 13 10 9 7 6
12 8 17 23 22 30 24 17 19 9 14 24 28 36 26 29 31 22 23 31 26 23 20 18 15 15 16 16 15 16 16 16 19 18 19 18 16 14 13 11 8 5 3 3
17 12 11 15 30 34 24 20 17 14 19 14 26 27 24 19 26 29 33 33 31 28 27 24 22 22 21 19 18 17 17 15 15 14 13 11 9 5 2 1 3 4 5 8
40 15 18 31 10 34 36 41 36 14 18 11 11 24 8 5 11 21 28 33 33 35 33 30 29 27 26 24 21 17 15 13 9 7 5 2 1 1 3 4 8 9 11 12
30 13 9 13 15 24 28 40 43 38 9 29 23 33 8 14 17 20 26 34 38 39 40 37 34 32 27 30 26 24 20 18 15 9 5 3 5 7 7 6 6 8 11 13
38 26 30 34 36 21 29 43 45 41 25 39 37 53 46 27 26 26 31 38 41 46 45 40 36 36 36 33 30 26 21 15 10 7 6 6 6 7 8 7 6 9 11 11
19 17 41 46 43 39 33 44 45 47 49 36 46 36 55 48 37 39 48 41 47 50 50 52 48 45 39 39 36 28 24 19 16 14 13 12 12 10 9 9 3 3 5 8
31 17 28 35 42 41 47 39 33 51 53 49 54 54 54 53 55 47 45 50 55 58 62 57 52 51 48 43 38 31 25 23 21 16 14 14 14 10 8 5 2 3 8 13
35 19 16 33 31 33 38 52 52 41 45 48 47 58 53 51 45 43 41 59 68 71 71 68 62 58 56 50 41 34 26 21 22 17 16 16 14 11 8 2 2 5 11 16
24 38 19 23 22 36 32 37 47 57 55 52 52 53 55 51 53 51 56 65 71 70 72 75 71 65 62 55 44 37 30 27 24 22 22 18 16 11 7 2 3 8 12 15
7 4 14 17 30 42 12 25 44 49 57 55 57 59 65 71 56 62 72 65 72 76 77 75 81 78 67 54 45 39 33 28 26 26 24 18 16 13 8 4 2 7 11 15
37 21 13 12 13 13 26 49 33 27 30 62 48 52 54 68 24 43 48 67 57 64 75 85 87 74 63 56 48 39 39 36 32 28 23 22 18 14 7 3 4 7 11 15
21 25 34 31 21 18 21 12 33 23 25 19 50 70 72 34 58 62 22 44 65 83 84 75 71 68 63 54 45 38 33 36 34 30 27 21 17 11 7 5 8 10 13 15
24 17 20 20 23 34 14 12 29 21 24 21 23 38 43 56 54 50 42 51 71 77 71 69 68 64 58 52 46 41 38 36 33 30 24 19 13 10 9 8 8 12 16 19
27 28 21 19 12 4 11 18 40 63 45 41 34 41 39 41 52 45 44 48 58 63 63 61 63 59 54 49 44 41 41 33 32 28 22 18 15 12 9 8 10 13 15 20
17 30 22 31 29 34 45 48 54 55 71 59 50 44 36 46 46 45 45 50 55 62 64 62 59 54 48 43 44 41 36 37 33 28 23 18 13 10 9 10 12 16 18 21
21 14 20 23 26 36 52 63 63 47 65 76 55 43 35 37 43 52 56 57 56 58 61 59 56 51 48 47 40 39 37 35 31 25 20 16 13 12 12 12 13 16 19 21
18 16 11 15 22 17 14 15 22 19 57 62 52 46 42 42 43 50 54 56 58 57 56 56 53 52 47 41 41 38 35 30 26 23 20 17 14 12 11 12 14 15 17 20
Wind_Direction_850mb
203 210 217 218 221 229 255 255 246 246 241 257 257 262 264 262 263 261 261 262 262 266 275 282 285 286 285 286 284 283 279 273 264 257 256 250 249 248 254 261 265 267 259 253
198 223 224 226 230 232 237 245 244 259 249 270 270 268 268 264 257 256 257 260 262 267 274 279 285 276 288 294 293 288 279 277 266 253 247 243 242 245 264 269 262 264 263 252
216 191 219 220 218 223 229 234 240 248 259 233 271 275 255 251 248 249 251 255 261 268 278 279 288 294 299 304 302 297 284 273 268 257 243 238 235 239 242 239 258 274 271 260
229 231 224 217 222 221 236 227 243 259 262 255 163 288 297 271 253 238 238 250 259 263 262 278 288 297 305 309 314 312 301 279 268 252 237 232 233 240 248 247 243 246 258 270
205 211 208 222 215 216 247 248 219 239 251 269 253 268 278 241 249 240 231 252 249 227 240 256 282 290 302 312 322 328 323 291 251 234 206 218 233 233 228 232 230 240 244 250
221 174 241 224 210 228 220 170 193 245 259 254 246 239 262 248 235 237 230 210 162 181 194 249 268 275 295 302 318 333 357 3 114 194 199 204 214 223 232 245 249 245 252 250
214 223 230 213 208 209 201 189 197 217 211 246 206 217 249 104 26 180 234 263 183 205 193 193 222 251 245 261 336 24 51 61 88 118 146 174 188 209 224 231 239 237 238 252
195 202 198 193 203 190 196 191 187 218 224 261 198 238 238 269 243 226 209 190 193 199 208 190 206 211 209 193 159 115 102 98 101 107 118 133 141 152 159 152 153 162 171 185
202 232 183 179 197 193 192 222 228 280 316 277 237 229 259 213 187 199 219 218 216 198 193 190 181 187 188 178 166 148 129 120 117 116 116 118 120 124 122 120 113 101 80 56
186 234 181 173 202 232 228 206 207 202 224 236 243 252 251 185 216 210 224 220 204 199 192 183 175 184 186 176 164 154 144 136 126 124 125 121 119 116 113 111 110 99 61 342
211 230 161 162 206 197 199 222 223 222 236 246 259 256 249 257 218 199 214 211 202 202 195 187 186 191 188 177 167 160 155 148 141 136 127 121 115 111 89 350 345 325 323 313
208 220 220 208 222 228 212 214 209 212 196 220 268 260 152 69 268 187 198 199 199 198 196 191 191 189 186 184 180 171 166 164 154 138 146 165 169 294 302 314 313 318 318 323
189 225 202 239 242 219 227 233 220 231 265 238 237 257 299 255 211 221 197 196 199 197 194 192 192 191 192 192 192 189 189 186 186 189 197 243 282 294 298 308 316 312 319 324
191 224 220 229 232 193 212 228 230 232 238 245 238 251 263 222 220 210 208 206 202 201 198 196 195 196 202 201 201 202 199 201 200 211 239 273 292 293 290 297 329 329 325 336
196 230 229 242 254 261 236 225 226 227 232 229 246 240 255 256 252 214 220 210 205 204 200 200 200 199 204 206 206 208 217 225 232 236 241 251 262 253 252 265 293 319 359 1
196 233 226 247 247 242 250 246 242 230 235 242 247 252 254 263 263 251 217 212 212 208 207 204 202 202 204 208 212 219 223 223 221 233 255 257 248 240 243 245 286 343 15 18
210 224 223 247 241 246 247 236 237 243 236 238 241 248 256 254 257 253 232 215 214 212 206 204 204 204 206 210 213 215 222 236 243 239 243 245 241 240 248 271 353 27 25 21
226 218 220 244 248 242 241 241 231 238 238 239 243 252 253 254 264 266 252 228 220 212 203 205 206 206 208 209 210 213 217 227 236 237 241 233 230 230 223 241 358 20 22 13
232 224 230 232 242 246 286 236 224 224 239 240 241 246 254 260 264 269 253 232 228 213 210 202 208 209 208 206 208 214 221 227 233 234 231 226 226 223 216 217 321 15 9 2
211 233 224 219 253 227 244 245 239 233 249 250 242 247 247 247 240 252 253 237 219 202 196 204 210 207 206 207 214 217 223 225 235 231 225 223 217 218 226 250 330 355 349 347
201 215 222 232 247 256 268 330 174 183 239 243 231 232 237 230 227 247 259 213 199 196 199 207 207 205 207 208 210 213 214 217 223 222 217 215 213 218 240 290 325 330 333 334
205 205 214 231 238 248 251 143 204 245 297 295 272 244 247 241 235 229 222 195 192 195 198 202 201 203 205 206 208 212 218 221 219 215 210 210 214 230 249 275 311 328 335 334
240 236 237 228 243 167 186 232 279 297 294 288 278 269 265 233 219 210 198 197 197 199 199 198 200 199 200 203 206 208 212 213 213 212 207 207 215 230 256 292 308 306 310 314
234 237 239 243 247 252 260 263 258 263 266 270 267 264 256 234 218 209 202 198 196 198 198 200 199 199 200 199 201 204 210 210 208 206 206 209 218 234 256 274 286 297 309 316
248 211 218 241 260 269 265 254 254 263 276 260 263 256 245 236 223 213 201 200 198 196 196 201 201 199 197 196 201 203 200 202 202 203 208 212 219 231 246 267 287 303 312 319
205 219 213 237 238 244 276 274 276 264 268 263 263 262 245 232 222 212 203 199 200 196 193 193 194 195 194 198 198 195 196 198 201 206 212 216 226 242 261 278 293 307 313 316